User: anonymous   Login
Location: Unspecified
(0.0000°N, 0.0000°E)
Time: 19:03:30
(UTC+00:00)
Language:

STARLINK-5775 - Orbit

View from above orbital plane
View from above orbital plane
View from above satellite
View from above satellite

Ground track
Ground track

The orbit is defined by the following mean orbital elements,

1 56503U          26145.46341045 +.00000000 +00000-0 -10172-4 0 00003
2 56503  43.0025 138.7071 0001428 269.0443  91.0245 15.27575996    02
Epoch (UTC): 25 May 2026 11:07:18
Eccentricity: 0.0001428
inclination: 43.0025°
perigee height: 482 km
apogee height: 484 km
right ascension of ascending node: 138.7071°
argument of perigee: 269.0443°
revolutions per day: 15.27575996
mean anomaly at epoch: 91.0245°

The dashed part of the orbit path shows where the satellite is in the earth's shadow,  

DLR